Location: Puketoi
(40.5833°S, 176.0167°E)
Time: 23:42:23
(UTC+00:00)

COSMOS 2455 - Pass Details

Date: 30 September 2023
Orbit: 902 x 907 km, 67.1° (Epoch: 03 December)

Event Time Altitude Azimuth Distance (km) Brightness Sun altitude
Exits shadow 11:10:51 12° 161° (SSE) 2,481 5.5 -44.8°
Drops below altitude 10° 11:11:14 10° 159° (SSE) 2,615 5.6 -44.8°
Sets 11:13:50 0° 154° (SSE) 3,562 6.4 -45.0°
